| time (UTC) | temp F | wind direction | speed knots | gust knots | rain 1hr in | rain 24hr in | rain mn in | humidity % | barometer mb |
| 20260503232005 | 61 | 0 | 0.0 | 2.6 | 0.00 | 0.00 | 0.00 | 77 | 1030.3 |
| 20260503231006 | 59 | 0 | 0.0 | 5.2 | 0.00 | 0.00 | 0.00 | 83 | 1030.3 |
| 20260503225007 | 59 | 0 | 0.0 | 2.6 | 0.00 | 0.00 | 0.00 | 80 | 1030.7 |
| 20260503224006 | 58 | 34 | 1.7 | 2.6 | 0.00 | 0.00 | 0.00 | 81 | 1031.2 |
| 20260503223006 | 57 | 30 | 0.9 | 5.2 | 0.00 | 0.00 | 0.00 | 81 | 1031.4 |
| 20260503221006 | 54 | 28 | 2.6 | 6.1 | 0.00 | 0.00 | 0.00 | 86 | 1032.5 |
| 20260503214006 | 49 | 4 | 1.7 | 5.2 | 0.00 | 0.00 | 0.00 | 93 | 1034.1 |
| 20260503213007 | 48 | 33 | 0.9 | 6.1 | 0.00 | 0.00 | 0.00 | 95 | 1034.4 |
| 20260503212006 | 47 | 0 | 0.0 | 5.2 | 0.00 | 0.00 | 0.00 | 97 | 1034.6 |
| 20260503210006 | 45 | 22 | 1.7 | 6.1 | 0.00 | 0.00 | 0.00 | 99 | 1035.6 |
| 20260503204005 | 44 | 25 | 4.3 | 6.1 | 0.00 | 0.00 | 0.00 | 99 | 1037.3 |
| 20260503202016 | 42 | 18 | 0.9 | 6.1 | 0.00 | 0.00 | 0.00 | 99 | 1037.9 |
| 20260503201006 | 42 | 39 | 0.9 | 5.2 | 0.00 | 0.00 | 0.00 | 99 | 1037.9 |
| 20260503200006 | 41 | 35 | 0.9 | 5.2 | 0.00 | 0.00 | 0.00 | 99 | 1038.1 |
| 20260503195006 | 40 | 36 | 1.7 | 5.2 | 0.00 | 0.00 | 0.00 | 99 | 1037.8 |
| 20260503194005 | 39 | 24 | 0.9 | 2.6 | 0.00 | 0.00 | 0.00 | 99 | 1037.8 |
| 20260503193006 | 39 | 29 | 0.9 | 5.2 | 0.00 | 0.00 | 0.00 | 99 | 1037.6 |
| 20260503191006 | 39 | 35 | 0.9 | 5.2 | 0.00 | 0.00 | 0.00 | 99 | 1037.6 |
| 20260503190007 | 39 | 44 | 0.9 | 2.6 | 0.00 | 0.00 | 0.00 | 99 | 1037.4 |
| 20260503185006 | 39 | 42 | 0.9 | 2.6 | 0.00 | 0.00 | 0.00 | 99 | 1037.1 |
| 20260503184006 | 39 | 31 | 1.7 | 5.2 | 0.00 | 0.00 | 0.00 | 99 | 1037.0 |
| 20260503182006 | 39 | 44 | 1.7 | 2.6 | 0.00 | 0.00 | 0.00 | 99 | 1037.1 |
| 20260503180006 | 40 | 45 | 0.9 | 2.6 | 0.00 | 0.00 | 0.00 | 99 | 1036.7 |
| 20260503175006 | 40 | 38 | 1.7 | 5.2 | 0.00 | 0.00 | 0.00 | 99 | 1036.4 |
| 20260503173007 | 40 | 29 | 1.7 | 5.2 | 0.00 | 0.00 | 0.00 | 99 | 1036.3 |
| 20260503172007 | 40 | 33 | 0.9 | 2.6 | 0.00 | 0.00 | 0.00 | 99 | 1036.2 |
| 20260503171006 | 40 | 32 | 1.7 | 5.2 | 0.00 | 0.00 | 0.00 | 99 | 1036.4 |
| 20260503151006 | 42 | 0 | 0.0 | 1.7 | 0.00 | 0.00 | 0.00 | 99 | 1035.7 |
| 20260503131006 | 43 | 0 | 0.0 | 1.7 | 0.00 | 0.00 | 0.00 | 99 | 1033.7 |
| 20260503081006 | 47 | 0 | 0.0 | 0.0 | 0.00 | 0.00 | 0.00 | 97 | 1030.3 |
| 20260503072006 | 49 | 0 | 0.0 | 0.0 | 0.00 | 0.00 | 0.00 | 96 | 1030.9 |
| 20260503071006 | 49 | 0 | 0.0 | 0.0 | 0.00 | 0.00 | 0.00 | 96 | 1030.5 |
| 20260503055006 | 52 | 0 | 0.0 | 0.0 | 0.00 | 0.00 | 0.00 | 92 | 1029.6 |
| 20260503054008 | 53 | 0 | 0.0 | 0.0 | 0.00 | 0.00 | 0.00 | 90 | 1029.8 |
| 20260503053006 | 54 | 0 | 0.0 | 0.0 | 0.00 | 0.00 | 0.00 | 89 | 1029.8 |
| 20260503052007 | 55 | 0 | 0.0 | 0.0 | 0.00 | 0.00 | 0.00 | 87 | 1029.7 |
| 20260503050006 | 57 | 0 | 0.0 | 1.7 | 0.00 | 0.00 | 0.00 | 84 | 1029.9 |
| 20260503044006 | 59 | 0 | 0.0 | 1.7 | 0.00 | 0.00 | 0.00 | 79 | 1029.8 |
| 20260503043007 | 60 | 0 | 0.0 | 2.6 | 0.00 | 0.00 | 0.00 | 78 | 1029.7 |
| 20260503042006 | 60 | 130 | 0.9 | 2.6 | 0.00 | 0.00 | 0.00 | 78 | 1029.6 |
| 20260503041006 | 60 | 0 | 0.0 | 5.2 | 0.00 | 0.00 | 0.00 | 78 | 1029.9 |
| 20260503040007 | 59 | 113 | 0.9 | 6.1 | 0.00 | 0.00 | 0.00 | 76 | 1029.8 |
| 20260503034006 | 60 | 150 | 0.9 | 6.1 | 0.00 | 0.00 | 0.00 | 79 | 1029.9 |
| 20260503033006 | 60 | 125 | 0.9 | 6.1 | 0.00 | 0.00 | 0.00 | 77 | 1029.7 |
| 20260503032006 | 60 | 157 | 1.7 | 6.1 | 0.00 | 0.00 | 0.00 | 77 | 1029.9 |
| 20260503031008 | 61 | 139 | 2.6 | 6.1 | 0.00 | 0.00 | 0.00 | 75 | 1030.1 |
| 20260503030006 | 61 | 158 | 0.9 | 7.8 | 0.00 | 0.00 | 0.00 | 77 | 1030.0 |
| 20260503024006 | 61 | 197 | 1.7 | 6.1 | 0.00 | 0.00 | 0.00 | 77 | 1029.9 |
| 20260503023006 | 61 | 181 | 0.9 | 6.1 | 0.00 | 0.00 | 0.00 | 77 | 1029.7 |
| 20260503022006 | 61 | 219 | 2.6 | 6.1 | 0.00 | 0.00 | 0.00 | 77 | 1029.4 |
| 20260503021006 | 60 | 179 | 1.7 | 6.1 | 0.00 | 0.00 | 0.00 | 77 | 1029.3 |
| 20260503020006 | 61 | 197 | 1.7 | 7.8 | 0.00 | 0.00 | 0.00 | 76 | 1029.4 |
| 20260503015005 | 61 | 177 | 0.9 | 7.8 | 0.00 | 0.00 | 0.00 | 75 | 1029.3 |
| 20260503013006 | 61 | 179 | 2.6 | 6.1 | 0.00 | 0.00 | 0.00 | 75 | 1029.1 |
| 20260503012006 | 62 | 191 | 2.6 | 6.1 | 0.00 | 0.00 | 0.00 | 74 | 1029.0 |
| 20260503011005 | 62 | 183 | 1.7 | 5.2 | 0.00 | 0.00 | 0.00 | 74 | 1029.1 |
| 20260503005005 | 62 | 182 | 2.6 | 5.2 | 0.00 | 0.00 | 0.00 | 74 | 1029.0 |
| 20260503004006 | 63 | 206 | 1.7 | 5.2 | 0.00 | 0.00 | 0.00 | 71 | 1029.0 |
| 20260503003006 | 62 | 171 | 0.9 | 6.1 | 0.00 | 0.00 | 0.00 | 72 | 1028.9 |
| 20260503002006 | 64 | 225 | 1.7 | 5.2 | 0.00 | 0.00 | 0.00 | 73 | 1029.0 |
| 20260503001006 | 65 | 301 | 1.7 | 5.2 | 0.00 | 0.00 | 0.00 | 65 | 1029.0 |
| 20260503000006 | 64 | 0 | 0.0 | 5.2 | 0.00 | 0.00 | 0.00 | 69 | 1029.7 |
| 20260502235005 | 62 | 9 | 1.7 | 6.1 | 0.00 | 0.00 | 0.00 | 69 | 1030.0 |
| 20260502234006 | 62 | 330 | 1.7 | 5.2 | 0.00 | 0.00 | 0.00 | 70 | 1030.5 |
| 20260502233009 | 62 | 33 | 0.9 | 5.2 | 0.00 | 0.00 | 0.00 | 70 | 1030.8 |